Weather History for 16170 - October, 2013

Change the Weather History Date:

Wednesday, October 16, 2013

  Actual Average Record
Temperature  
Mean Temperature 67 °F -  
Max Temperature 75 °F 64 °F - ()
Min Temperature 59 °F 46 °F - ()
Cooling Degree Days 2    
Growing Degree Days 17 (Base 50)    
Moisture  
Dew Point 61 °F    
Average Humidity 83    
Maximum Humidity 100    
Minimum Humidity 61    
Precipitation  
Precipitation 0.00 in 0.13 in - ()
Sea Level Pressure  
Sea Level Pressure 29.79 in    
Wind  
Wind Speed 4 mph ()    
Max Wind Speed 9 mph    
Max Gust Speed -    
Visibility 5.3 miles    
Events Rain    
T = Trace of Precipitation, MM = Missing Value Source: Averaged Metar Reports

Daily Weather History Graph

Daily Weather History Graph

Search for Another Location

Airport or City:

Trip Planner

Search our weather history database for the weather conditions in past years. The results will help you decide how hot, cold, wet, or windy it might be!

Date:

Astronomy

Oct. 16, 2013 Rise Set
Actual Time 7:30 AM CEST 6:29 PM CEST
Civil Twilight 7:01 AM CEST 6:58 PM CEST
Nautical Twilight 6:28 AM CEST 7:32 PM CEST
Astronomical Twilight 5:55 AM CEST 8:05 PM CEST
Moon 5:03 PM CEST (10/16) 4:35 AM CEST (10/16)
Length of Visible Light 11h 57m
Length of Day
10h 59m
Waxing Gibbous, 92% of the Moon is Illuminated
Oct 16
Waxing Gibbous
Oct 19
Full
Oct 27
Last Quarter
Nov 3
New
Nov 10
First Quarter

Hourly Weather History & Observations

Time (CEST) Temp. Dew Point Humidity Pressure Visibility Wind Dir Wind Speed Gust Speed Precip Events Conditions
12:20 AM 62.6 °F 60.8 °F 94% 29.86 in 6.2 mi SE 3.5 mph - N/A   Scattered Clouds
12:50 AM 62.6 °F 60.8 °F 94% 29.86 in 6.2 mi SE 5.8 mph - N/A   Scattered Clouds
1:20 AM 62.6 °F 60.8 °F 94% 29.83 in 6.2 mi SE 5.8 mph - N/A   Drizzle
1:50 AM 62.6 °F 60.8 °F 94% 29.83 in 6.2 mi East 4.6 mph - N/A   Drizzle
2:20 AM 62.6 °F 60.8 °F 94% 29.80 in 6.2 mi ENE 5.8 mph - N/A Rain Rain
2:50 AM 62.6 °F 60.8 °F 94% 29.77 in 4.3 mi East 3.5 mph - N/A Rain Heavy Rain
3:20 AM 62.6 °F 60.8 °F 94% 29.77 in 4.3 mi Variable 5.8 mph - N/A Rain Rain
3:50 AM 62.6 °F 60.8 °F 94% 29.74 in 2.5 mi SSW 3.5 mph - N/A Rain Rain
4:20 AM 62.6 °F 60.8 °F 94% 29.74 in 3.7 mi ENE 5.8 mph - N/A   Mostly Cloudy
4:50 AM 62.6 °F 60.8 °F 94% 29.74 in 5.0 mi ESE 3.5 mph - N/A   Mostly Cloudy
5:20 AM 62.6 °F 60.8 °F 94% 29.74 in 5.0 mi Variable 1.2 mph - N/A   Mostly Cloudy
5:50 AM 62.6 °F 60.8 °F 94% 29.74 in 5.0 mi Calm Calm - N/A   Mostly Cloudy
6:20 AM 62.6 °F 60.8 °F 94% 29.74 in 5.0 mi NNE 3.5 mph - N/A   Mostly Cloudy
6:50 AM 62.6 °F 60.8 °F 94% 29.74 in 5.0 mi ENE 3.5 mph - N/A   Mostly Cloudy
7:20 AM 62.6 °F 60.8 °F 94% 29.74 in 5.0 mi Variable 2.3 mph - N/A   Mostly Cloudy
7:50 AM 62.6 °F 60.8 °F 94% 29.74 in 5.0 mi Variable 2.3 mph - N/A   Mostly Cloudy
8:20 AM 62.6 °F 62.6 °F 100% 29.74 in 4.3 mi Variable 2.3 mph - N/A   Scattered Clouds
8:50 AM 64.4 °F 62.6 °F 94% 29.74 in 4.3 mi South 3.5 mph - N/A   Partly Cloudy
9:20 AM 66.2 °F 62.6 °F 88% 29.74 in 3.7 mi Variable 1.2 mph - N/A   Partly Cloudy
9:50 AM 68.0 °F 62.6 °F 83% 29.77 in 3.7 mi Variable 2.3 mph - N/A   Partly Cloudy
10:20 AM 66.2 °F 60.8 °F 83% 29.77 in 4.3 mi Variable 2.3 mph - N/A   Scattered Clouds
10:50 AM 68.0 °F 62.6 °F 83% 29.77 in 5.0 mi SSE 3.5 mph - N/A   Partly Cloudy
11:20 AM 69.8 °F 60.8 °F 73% 29.77 in 6.2 mi Variable 2.3 mph - N/A   Partly Cloudy
11:50 AM 69.8 °F 60.8 °F 73% 29.77 in 6.2 mi Variable 2.3 mph - N/A   Partly Cloudy
12:20 PM 71.6 °F 60.8 °F 69% 29.77 in 6.2 mi Variable 3.5 mph - N/A   Partly Cloudy
12:50 PM 71.6 °F 59.0 °F 64% 29.77 in 6.2 mi West 4.6 mph - N/A   Partly Cloudy
1:20 PM 73.4 °F 60.8 °F 65% 29.77 in 6.2 mi Variable 2.3 mph - N/A   Partly Cloudy
1:50 PM 73.4 °F 60.8 °F 65% 29.77 in 6.2 mi Variable 3.5 mph - N/A   Partly Cloudy
2:20 PM 73.4 °F 59.0 °F 61% 29.77 in 6.2 mi Variable 3.5 mph - N/A   Scattered Clouds
2:50 PM 73.4 °F 60.8 °F 65% 29.77 in 6.2 mi West 3.5 mph - N/A   Scattered Clouds
3:20 PM 73.4 °F 60.8 °F 65% 29.77 in 6.2 mi Variable 3.5 mph - N/A   Scattered Clouds
3:50 PM 75.2 °F 60.8 °F 61% 29.77 in 6.2 mi SW 5.8 mph - N/A   Scattered Clouds
4:20 PM 75.2 °F 60.8 °F 61% 29.77 in 6.2 mi Variable 2.3 mph - N/A   Partly Cloudy
4:50 PM 73.4 °F 60.8 °F 65% 29.77 in 6.2 mi WSW 3.5 mph - N/A   Partly Cloudy
5:20 PM 73.4 °F 60.8 °F 65% 29.77 in - WSW 6.9 mph - N/A   Clear
5:50 PM 71.6 °F 60.8 °F 69% 29.77 in - SW 5.8 mph - N/A   Clear
6:20 PM 69.8 °F 60.8 °F 73% 29.80 in - SW 8.1 mph - N/A   Clear
6:50 PM 68.0 °F 60.8 °F 78% 29.80 in - SW 9.2 mph - N/A   Clear
7:20 PM 66.2 °F 60.8 °F 83% 29.83 in 6.2 mi SW 8.1 mph - N/A   Partly Cloudy
7:50 PM 66.2 °F 60.8 °F 83% 29.86 in - SW 5.8 mph - N/A   Clear
8:20 PM 64.4 °F 59.0 °F 83% 29.86 in - Variable 1.2 mph - N/A   Clear
8:50 PM 62.6 °F 59.0 °F 88% 29.86 in - Variable 2.3 mph - N/A   Clear
9:20 PM 62.6 °F 59.0 °F 88% 29.86 in - Variable 1.2 mph - N/A   Clear
9:50 PM 62.6 °F 59.0 °F 88% 29.89 in - Variable 2.3 mph - N/A   Clear
10:20 PM 60.8 °F 59.0 °F 94% 29.89 in - East 3.5 mph - N/A   Clear
10:50 PM 59.0 °F 57.2 °F 94% 29.89 in - ENE 4.6 mph - N/A   Clear
11:20 PM 59.0 °F 57.2 °F 94% 29.89 in - Variable 2.3 mph - N/A   Clear
11:50 PM 59.0 °F 59.0 °F 100% 29.89 in - Variable 2.3 mph - N/A   Clear